Preview of NWS' New Version of Forecast
This preview is not operational and should not be used for support decisions.

Regional Weather Roundup (RWR)

Issued by National Weather Service (NWS)

                            
000
ASUS46 KSEW 171210
RWRWA 

WASHINGTON REGIONAL WEATHER ROUNDUP
NATIONAL WEATHER SERVICE SEATTLE WA
400 AM PST SUN FEB 17 2019

NOTE:"FAIR" INDICATES FEW OR NO CLOUDS BELOW 12,000 FEET WITH NO 
SIGNIFICANT WEATHER AND/OR OBSTRUCTIONS TO VISIBILITY.

WAZ507-509-555>559-171300-
SEATTLE, TACOMA, EVERETT, AND VICINITY
  
CITY           SKY/WX    TMP DP  RH WIND       PRES   REMARKS
EVERETT        MOCLDY    35  34  96 SE6       30.00R                  
6HR MIN TEMP:  35; 6HR MAX TEMP:  36; 6HR PCP:  0.01;                

BOEING FIELD   CLOUDY    36  33  89 SE5       30.03R                  
6HR MIN TEMP:  32; 6HR MAX TEMP:  39;                                

RENTON         MOCLDY    32  30  92 SE3       30.03R                  
6HR MIN TEMP:  32; 6HR MAX TEMP:  38;                                

SEATAC AIRPORT CLOUDY    35  32  88 SE5       30.01R                  
6HR MIN TEMP:  34; 6HR MAX TEMP:  39;                                

JBLM-MCCHORD   FOG       27  27 100 CALM      30.02R VSB 1            
6HR MIN TEMP:  26; 6HR MAX TEMP:  34;                                

PUYALLUP       FAIR      28  28 100 CALM      30.01R                  
BREMERTON      FOG       34  32  93 CALM      30.01R VSB 1/4          
6HR MIN TEMP:  32; 6HR MAX TEMP:  35; 6HR PCP:  0.02;                

JBLM-FT LEWIS  FOG       28  28 100 SE3       30.01R VSB 1/4          
6HR MIN TEMP:  27; 6HR MAX TEMP:  34;                                

TACOMA NARROWS MOCLDY    32  30  92 CALM      30.01R                  
6HR MIN TEMP:  31; 6HR MAX TEMP:  37;                                

$$
 
WAZ001-503-506-510-514-515-171300-
NORTH INTERIOR
  
CITY           SKY/WX    TMP DP  RH WIND       PRES   REMARKS
BELLINGHAM     PTCLDY    32  28  85 CALM      30.03R                  
6HR MIN TEMP:  32; 6HR MAX TEMP:  37;                                

FRIDAY HARBOR  CLOUDY    39  36  89 N7        30.03R                  
6HR MIN TEMP:  38; 6HR MAX TEMP:  39; 6HR PCP: TRACE;                

EASTSOUND      CLOUDY    41  39  93 N9        30.02R                  
PORT ANGELES   LGT RAIN  34  33  96 CALM      30.03R FOG              
6HR MIN TEMP:  34; 6HR MAX TEMP:  36; 6HR PCP:  0.09;                

EDIZ HOOK      LGT RAIN  37  35  94 CALM      30.03R                  
6HR MIN TEMP:  37; 6HR MAX TEMP:  39; 6HR PCP:  0.23;                

PORT TOWNSEND  CLOUDY    34  34 100 CALM      30.02R                  
NAS WHIDBEY    CLOUDY    41  35  79 E3        30.06R                  
6HR MIN TEMP:  40; 6HR MAX TEMP:  42;                                

ARLINGTON      CLOUDY    34  34 100 CALM      30.03R FOG              
6HR MIN TEMP:  33; 6HR MAX TEMP:  36; 6HR PCP: TRACE;                

BURLINGTON     CLOUDY   N/A N/A N/A CALM      30.03R                  
$$
 
WAZ020-022-039-040-504-511-512-171300-
SOUTHWEST INTERIOR
  
CITY           SKY/WX    TMP DP  RH WIND       PRES   REMARKS
SHELTON        CLOUDY    29  27  92 CALM      29.99R                  
6HR MIN TEMP:  27; 6HR MAX TEMP:  35;                                

OLYMPIA        FOG       32  31  96 CALM      30.02R VSB 1/2          
6HR MIN TEMP:  28; 6HR MAX TEMP:  32;                                

CHEHALIS       CLOUDY    34  34 100 S5        30.02R                  
KELSO          CLOUDY    35  34  96 S5        30.04R FOG              
6HR MIN TEMP:  35; 6HR MAX TEMP:  36; 6HR PCP: TRACE;                

VANCOUVER      CLOUDY    35  34  96 CALM      30.02S                  
6HR MIN TEMP:  31; 6HR MAX TEMP:  38;                                

SCAPPOOSE, OR  CLOUDY    36  33  89 W3        30.02R                  
6HR MIN TEMP:  35; 6HR MAX TEMP:  37;                                

PORTLAND, OR   CLOUDY    37  34  89 CALM      30.03R                  
6HR MIN TEMP:  34; 6HR MAX TEMP:  38; 6HR PCP: TRACE;                

$$
 
WAZ021-516-517-171300-
WASHINGTON COAST
  
CITY           SKY/WX    TMP DP  RH WIND       PRES   REMARKS
FORKS          CLEAR     26  24  92 CALM      30.00R                  
6HR MIN TEMP:  26; 6HR MAX TEMP:  31;                                

HOQUIAM        CLOUDY    34  33  96 E7        30.00R                  
6HR MIN TEMP:  34; 6HR MAX TEMP:  37; 6HR PCP:  0.03;                

ASTORIA, OR    CLOUDY    34  33  96 E3        30.00S                  
6HR MIN TEMP:  30; 6HR MAX TEMP:  35; 6HR PCP:  0.03;                

$$
 
WAZ019-023-024-040-567>569-171300-
CASCADE MOUNTAINS AND COLUMBIA GORGE
  
CITY           SKY/WX    TMP DP  RH WIND       PRES   REMARKS
STAMPEDE PASS  FOG       24  21  88 SW5       29.84R VSB 1            
6HR MIN TEMP:  23; 6HR MAX TEMP:  25; 6HR PCP:  0.01;                

TROUTDALE, OR  CLOUDY    35  33  92 CALM      30.03R                  
6HR MIN TEMP:  33; 6HR MAX TEMP:  37;                                

HOOD RIVER, OR CLOUDY    28  28 100 S3        29.98S                  
THE DALLES, OR MOCLDY    28  23  81 CALM      29.99R                  
6HR MIN TEMP:  26; 6HR MAX TEMP:  31;                                

$$

WAZ026-027-041>044-520-521-171300-
EAST SLOPES
  
CITY           SKY/WX    TMP DP  RH WIND       PRES   REMARKS
OMAK           MOCLDY    27  24  89 N10       29.95R WCI  17          
6HR MIN TEMP:  24; 6HR MAX TEMP:  30;                                

WENATCHEE      CLOUDY    27  23  85 CALM      29.95R                  
6HR MIN TEMP:  27; 6HR MAX TEMP:  29;                                

ELLENSBURG     CLOUDY    25  20  81 CALM      29.91R                  
6HR MIN TEMP:  25; 6HR MAX TEMP:  31;                                

YAKIMA         LGT SNOW  30  28  92 W3        29.96R FOG              
6HR MIN TEMP:  28; 6HR MAX TEMP:  31; 6HR PCP:  0.01;                

SUNNYSIDE ARPT CLOUDY    32  32 100 CALM      29.98  FOG              
6HR MIN TEMP:  31; 6HR MAX TEMP:  33;                                

YAKIMA TC      FOG       30  28  93 CALM      29.93R VSB 1            
6HR MIN TEMP:  30; 6HR MAX TEMP:  31; 6HR PCP:  0.01;                

$$

WAZ028-034-035-171300-
COLUMBIA BASIN
  
CITY           SKY/WX    TMP DP  RH WIND       PRES   REMARKS
EPHRATA        CLOUDY    28  24  85 SW5       29.94S                  
6HR MIN TEMP:  28; 6HR MAX TEMP:  31;                                

MOSES LAKE     CLOUDY    28  24  85 NW6       29.96R                  
6HR MIN TEMP:  28; 6HR MAX TEMP:  31;                                

PASCO          CLOUDY    33  31  92 N6        30.00R                  
6HR MIN TEMP:  33; 6HR MAX TEMP:  34;                                

RICHLAND ARPT  CLOUDY    33  33 100 CALM      30.00  FOG              
6HR MIN TEMP:  33; 6HR MAX TEMP:  34;                                

HERMISTON, OR  LGT SNOW  32  30  92 W5        29.97R VSB 1            
6HR MIN TEMP:  32; 6HR MAX TEMP:  32; 6HR PCP: TRACE;                

$$

WAZ036>038-171300-
NORTHEAST WASHINGTON
  
CITY           SKY/WX    TMP DP  RH WIND       PRES   REMARKS
SPOKANE GEIGER FOG       29  27  92 S5        29.87R VSB 1/2          
6HR MIN TEMP:  29; 6HR MAX TEMP:  30; 6HR PCP: TRACE;                

SPOKANE FELTS  CLOUDY    32  29  88 W5        29.89R                  
6HR MIN TEMP:  32; 6HR MAX TEMP:  33;                                

FAIRCHILD AFB  CLOUDY    28  28 100 CALM      29.85R FOG              
6HR MIN TEMP:  28; 6HR MAX TEMP:  29;                                

COEURDALENE,ID CLOUDY    30  29  96 CALM      29.87R FOG              
6HR MIN TEMP:  30; 6HR MAX TEMP:  31;                                

DEER PARK      FLURRIES  29  27  92 N3        29.88R                  
6HR MIN TEMP:  28; 6HR MAX TEMP:  30; 6HR PCP: TRACE;                

$$

WAZ029>033-171300-
SOUTHEAST WASHINGTON
  
CITY           SKY/WX    TMP DP  RH WIND       PRES   REMARKS
PULLMAN        CLOUDY    29  28  96 NW6       29.88R FOG              
6HR MIN TEMP:  28; 6HR MAX TEMP:  29;                                

LEWISTON, ID   LGT SNOW  33  30  88 SW5       29.90R FOG              
6HR MIN TEMP:  33; 6HR MAX TEMP:  34; 6HR PCP: TRACE;                

WALLA WALLA    CLOUDY    32  29  88 CALM      29.93R FOG              
6HR MIN TEMP:  31; 6HR MAX TEMP:  33;                                

PENDLETON, OR  FOG       30  29  96 W3        29.91S VSB 1/4          
6HR MIN TEMP:  30; 6HR MAX TEMP:  31; 6HR PCP:  0.02;                

$$